SQ2CET-13 Weather Reports


time (UTC)temp
C
wind
direction
speed
KPH
gust
KPH
rain 1hr
cm
rain 24hr
cm
rain mn
cm
humidity
%
barometer
mb
20260903060039 15 230 9.7 19.3 0.00 0.61 0.00 75 1017.2
20260903055055 15 235 9.7 19.3 0.00 0.61 0.00 75 1017.1
20260903054120 15 235 8.0 19.3 0.00 0.61 0.00 76 1017.1
20260903053041 14 229 6.4 14.5 0.00 0.64 0.00 77 1017.2
20260903052104 14 230 3.2 14.5 0.00 0.64 0.00 77 1017.2
20260903051025 14 224 8.0 17.7 0.00 0.79 0.00 77 1017.3
20260903050052 14 224 6.4 12.9 0.00 0.94 0.00 77 1017.3
20260903045113 14 232 4.8 11.3 0.00 0.94 0.00 77 1017.2
20260903044033 14 210 4.8 12.9 0.00 0.94 0.00 77 1017.1
20260903043056 14 237 4.8 9.7 0.00 0.94 0.00 78 1017.3
20260903042120 14 228 3.2 9.7 0.00 0.94 0.00 78 1017.3
20260903041041 14 224 4.8 12.9 0.00 0.94 0.00 77 1017.4
20260903040125 14 231 4.8 16.1 0.00 0.94 0.00 76 1017.4
20260903035121 14 218 8.0 14.5 0.00 0.99 0.00 77 1017.4
20260903034040 14 228 3.2 20.9 0.00 1.07 0.00 76 1017.5
20260903033103 14 230 4.8 12.9 0.00 1.07 0.00 77 1017.4
20260903032120 14 232 4.8 9.7 0.00 1.07 0.00 77 1017.4
20260903031041 14 238 6.4 11.3 0.00 1.07 0.00 77 1017.5
20260903030104 14 225 6.4 14.5 0.00 1.07 0.00 77 1017.6
20260903025125 14 219 4.8 12.9 0.00 1.07 0.00 77 1017.6
20260903024040 14 228 6.4 11.3 0.00 1.07 0.00 77 1017.7
20260903023104 13 235 4.8 16.1 0.00 1.07 0.00 78 1017.6
20260903022036 13 224 4.8 11.3 0.00 1.07 0.00 78 1017.7
20260903021128 14 233 3.2 14.5 0.00 1.07 0.00 78 1017.7
20260903020112 14 228 6.4 16.1 0.00 1.07 0.00 78 1017.8
20260903015032 14 236 6.4 14.5 0.00 1.07 0.00 78 1017.9
20260903014137 14 220 9.7 16.1 0.00 1.07 0.00 78 1017.8
20260903013119 14 223 8.0 16.1 0.00 1.12 0.00 79 1017.9
20260903012040 14 229 8.0 19.3 0.00 1.12 0.00 79 1017.8
20260903011123 14 221 6.4 14.5 0.00 1.12 0.00 79 1017.8
20260903010043 15 219 6.4 14.5 0.00 1.12 0.00 79 1017.7
20260903005047 14 221 8.0 16.1 0.00 1.12 0.00 80 1017.7
20260903004103 14 238 8.0 12.9 0.00 1.12 0.00 81 1017.7
20260903003023 14 226 4.8 14.5 0.00 1.12 0.00 81 1017.7
20260903002047 14 232 6.4 14.5 0.00 1.12 0.00 82 1017.8
20260903001112 14 233 4.8 14.5 0.00 1.12 0.00 82 1017.9
20260903000034 14 237 6.4 16.1 0.00 1.12 0.00 82 1018.1
20260902235116 14 225 8.0 17.7 0.00 1.12 1.12 82 1018.1
20260902234141 13 232 4.8 9.7 0.00 1.12 1.12 83 1018.1
20260902233040 13 230 4.8 11.3 0.00 1.12 1.12 83 1018.0
20260902232103 13 234 4.8 11.3 0.00 1.12 1.12 83 1018.2
20260902231023 13 230 4.8 12.9 0.00 1.12 1.12 83 1018.1
20260902230039 13 212 4.8 11.3 0.00 1.12 1.12 83 1018.2
20260902225103 13 200 4.8 11.3 0.00 1.12 1.12 82 1018.1
20260902224024 13 199 3.2 8.0 0.00 1.12 1.12 82 1018.2
20260902223047 13 217 4.8 9.7 0.00 1.12 1.12 82 1018.2
20260902222111 14 217 4.8 8.0 0.00 1.12 1.12 82 1018.2
20260902221031 14 214 4.8 14.5 0.00 1.12 1.12 82 1018.3
20260902220057 14 219 4.8 11.3 0.00 1.12 1.12 82 1018.4
20260902215119 14 213 6.4 11.3 0.00 1.12 1.12 82 1018.5
20260902214040 14 230 4.8 11.3 0.00 1.12 1.12 81 1018.6
20260902213103 14 222 4.8 12.9 0.00 1.12 1.12 81 1018.5
20260902212023 14 189 6.4 12.9 0.00 1.12 1.12 80 1018.6
20260902211047 15 229 6.4 16.1 0.00 1.12 1.12 80 1018.6
20260902210112 14 220 6.4 11.3 0.00 1.12 1.12 80 1018.6
20260902205031 14 226 4.8 11.3 0.00 1.12 1.12 80 1018.5
20260902204056 15 228 6.4 11.3 0.00 1.12 1.12 80 1018.6
20260902203120 15 224 4.8 14.5 0.00 1.12 1.12 79 1018.6
20260902202040 15 219 4.8 12.9 0.00 1.12 1.12 79 1018.6
20260902201104 15 211 8.0 12.9 0.00 1.12 1.12 78 1018.7
20260902200026 15 219 4.8 12.9 0.00 1.12 1.12 78 1018.6
20260902195048 15 232 6.4 11.3 0.00 1.12 1.12 78 1018.6
20260902194112 15 227 4.8 11.3 0.00 1.12 1.12 78 1018.6
20260902193059 15 216 6.4 9.7 0.00 1.12 1.12 77 1018.8
20260902192055 15 223 6.4 11.3 0.00 1.12 1.12 77 1018.8
20260902191119 15 235 4.8 8.0 0.00 1.12 1.12 77 1018.8
20260902190040 15 246 3.2 8.0 0.00 1.12 1.12 77 1018.9
20260902185104 15 237 4.8 9.7 0.00 1.12 1.12 77 1019.0
20260902184024 15 233 4.8 9.7 0.00 1.12 1.12 76 1019.0
20260902183048 15 237 4.8 8.0 0.00 1.12 1.12 76 1019.0
20260902182111 15 236 3.2 8.0 0.00 1.12 1.12 75 1018.9
20260902181032 15 237 4.8 9.7 0.00 1.12 1.12 75 1019.0
20260902180055 16 238 4.8 8.0 0.00 1.12 1.12 75 1018.8
20260902175119 16 239 6.4 14.5 0.00 1.12 1.12 74 1018.9
20260902174040 16 244 4.8 11.3 0.00 1.12 1.12 74 1018.9
20260902173124 16 244 6.4 14.5 0.00 1.12 1.12 75 1018.9
20260902172024 16 242 6.4 12.9 0.00 1.12 1.12 75 1018.9
20260902171107 16 246 6.4 14.5 0.00 1.12 1.12 73 1019.0
20260902170112 16 251 6.4 12.9 0.00 1.12 1.12 74 1018.8
20260902165116 17 238 6.4 14.5 0.00 1.12 1.12 74 1018.9
20260902164055 17 253 6.4 12.9 0.00 1.12 1.12 72 1018.8
20260902163120 17 234 9.7 14.5 0.00 1.12 1.12 71 1018.8
20260902162040 17 254 8.0 12.9 0.00 1.12 1.12 71 1018.7
20260902161103 17 241 9.7 19.3 0.00 1.12 1.12 70 1018.6
20260902160024 18 255 11.3 20.9 0.00 1.12 1.12 69 1018.6
20260902155109 18 254 8.0 20.9 0.00 1.12 1.12 68 1018.7
20260902154111 18 249 11.3 24.1 0.00 1.12 1.12 69 1018.7
20260902153036 18 236 11.3 17.7 0.00 1.12 1.12 71 1018.8
20260902152047 18 245 11.3 19.3 0.00 1.12 1.12 71 1018.8
20260902151105 18 252 8.0 19.3 0.00 1.12 1.12 70 1018.8
20260902150023 19 245 9.7 19.3 0.00 1.12 1.12 66 1018.9
20260902145108 18 246 8.0 17.7 0.00 1.12 1.12 67 1018.8
20260902144113 18 243 9.7 17.7 0.00 1.12 1.12 67 1018.8
20260902143026 18 249 9.7 16.1 0.00 1.12 1.12 66 1018.8
20260902142049 18 244 8.0 24.1 0.00 1.12 1.12 67 1018.9
20260902141106 18 245 9.7 17.7 0.00 1.12 1.12 67 1018.8
20260902140122 19 242 11.3 24.1 0.00 1.12 1.12 64 1018.7
20260902135040 19 258 8.0 19.3 0.00 1.12 1.12 63 1018.8
20260902134104 19 245 11.3 22.5 0.00 1.12 1.12 62 1018.8
20260902133025 20 239 9.7 24.1 0.00 1.12 1.12 59 1018.9
20260902132041 20 249 11.3 22.5 0.00 1.12 1.12 59 1018.8
20260902131105 20 243 12.9 24.1 0.00 1.12 1.12 60 1018.9
20260902130024 20 251 12.9 19.3 0.00 1.12 1.12 60 1018.9
20260902125109 19 243 11.3 20.9 0.00 1.12 1.12 62 1018.9
20260902124113 19 264 9.7 16.1 0.00 1.12 1.12 63 1019.0
20260902123031 19 249 8.0 29.0 0.00 1.12 1.12 63 1019.0
20260902122043 18 262 8.0 14.5 0.00 1.12 1.12 65 1019.1
20260902121104 18 271 6.4 14.5 0.00 1.12 1.12 67 1019.2
20260902120121 18 256 9.7 14.5 0.00 1.12 1.12 66 1019.2
20260902115040 18 263 9.7 17.7 0.00 1.12 1.12 69 1019.2
20260902114126 18 253 9.7 20.9 0.00 1.12 1.12 69 1019.2
20260902113024 18 246 11.3 19.3 0.08 1.12 1.12 72 1019.2
20260902112109 17 239 14.5 25.7 0.08 1.12 1.12 71 1019.1
20260902111112 16 254 8.0 16.1 0.08 1.12 1.12 79 1019.1
20260902110025 16 261 6.4 14.5 0.10 1.12 1.12 83 1019.1
20260902105109 15 254 6.4 12.9 0.20 1.12 1.12 85 1019.1
20260902104106 15 250 8.0 19.3 0.20 1.12 1.12 84 1019.0
20260902103112 17 264 9.7 20.9 0.13 1.04 1.04 80 1019.1